EUTELSAT HOTBIRD 13G

Last updated on Thu Nov 21 2024 00:02:45 GMT+0000 (Coordinated Universal Time)

1 54225U 22146A 24324.93521442 .00000088 00000+0 00000+0 0 9992 2 54225 0.0541 251.9865 0002125 292.7653 224.3897 1.00270044 1701
UTC large
Height (km)
Speed (km/s)
/
Latitude / Longitude
Inclination (degrees)
Orbital Period (minutes)
Azimuth
Elevation
Range (km)
Doppler Factor

Next 0 passes for location: London (51.5072 / 0.1276)

Sorry there are no passes over London.